Weather Roundup
Issued by NWS Chicago, IL

Home | Current Version | Previous Version | Text Only | Print | Product List | Glossary Off
Versions: 1 2 3 4 5 6 7 8 9 10 11 12 13 14 15 16 17 18 19 20 21 22 23 24 25 26 27 28 29 30 31 32 33 34 35 36 37 38 39 40 41 42 43 44 45 46 47 48 49 50

000
NZUS59 KLOT 290509
HRRLOT

CHICAGO AREA WEATHER ROUNDUP
NATIONAL WEATHER SERVICE CHICAGO/ROMEOVILLE IL
1200 AM CDT SUN MAY 29 2016

NOTE: "FAIR" INDICATES FEW OR NO CLOUDS BELOW 12,000 FEET WITH NO
SIGNIFICANT WEATHER AND/OR OBSTRUCTIONS TO VISIBILITY.

* THESE STATIONS ARE NOT UNDER NWS QUALITY CONTROL. THEY ALSO MAY NOT
  REPORT WEATHER SUCH AS PRECIPITATION OR FOG.

ILZ005-006-012>014-019>023-290600-
NORTHEAST ILLINOIS

CITY           SKY/WX    TMP DP  RH WIND       PRES   REMARKS
OHARE          CLOUDY    66  63  90 S6        29.96R
MIDWAY         MOCLDY    72  59  63 NW3       29.97R
AURORA         CLOUDY    67  61  81 S10       29.98R
LANSING*       CLOUDY    72  64  76 SW8       29.98S
JOLIET*        MOCLDY    70  58  65 CALM      30.00R
WAUKEGAN       CLOUDY    64  62  93 S5        29.94F
DUPAGE AIRPORT CLOUDY    65  62  90 S5        29.97R
WHEELING       MOCLDY    67  63  87 S5        29.97R
KANKAKEE*      CLOUDY    66  57  73 SW18G26   30.02R
MORRIS*        LGT RAIN  67  58  73 SW17G25   29.98R
LEWIS AIRPORT* CLOUDY    69  55  60 S10       30.00R
$$

WIZ051-052-058>065-066-070>072-290600-
SOUTHEAST WISCONSIN

CITY           SKY/WX    TMP DP  RH WIND       PRES   REMARKS
MILWAUKEE      LGT RAIN  66  63  90 S8        29.94S
KENOSHA*       MOCLDY    65  62  90 S5        29.94F
RACINE*        LGT RAIN  65  62  90 E5        29.96S
BURLINGTON     CLOUDY    63  62  96 S5        29.94F
WAUKESHA       CLOUDY    63  61  94 S7        29.96R
WEST BEND      CLOUDY    63  61  94 S8        29.93S
$$

INZ001>003-010>013-019-020-290600-
NORTHWEST INDIANA

CITY           SKY/WX    TMP DP  RH WIND       PRES   REMARKS
GARY*          CLOUDY    75  71  87 SW3       29.98S
MICHIGAN CITY* NOT AVBL
RENSSELAER*    NOT AVBL
VALPARAISO     PTCLDY    72  64  76 S9        30.00R
$$

LMZ740>746-290600-
SOUTHERN LAKE MICHIGAN

STATION/POSITION TIME  SKY/WX   TEMP WIND        PRES    VSBY
                                AIR  DIR/SP/G
                 (UTC)          (F)  (DEG/KT/KT) (MB)    (MI)
HARRISON CRIB    0400            75  230/ 11/ 13   N/A
BURNHAM HARBOR   0500            71  270/  4/ 13   N/A
CALUMET HARBOR   0400            76  180/ 10/ 13 1013.8R
BURNS HARBOR     0400            74  190/ 13/ 18 1015.2R
MICHIGAN CITY    0400            75  150/ 16/ 19   N/A
$$

ABBREVIATIONS USED IN REMARKS
   TC - TEMPERATURE IN CELSIUS
  WCI - WIND CHILL INDEX
   HX - HEAT INDEX
  VSB - VISIBILITY
$$




USA.gov is the U.S. government's official web portal to all federal, state and local government web resources and services.